Logansport, IN

5:51 AM EDT on May 23, 2017 (GMT -0400)
Logansport Municipal

Weather History for KGGP - December, 2013

Change the Weather History Date:

Sunday, December 22, 2013

  Actual Average Record
Temperature  
Mean Temperature 32 °F -  
Max Temperature 35 °F 36 °F 50 °F (2015)
Min Temperature 30 °F 18 °F 19 °F (2012)
Degree Days  
Heating Degree Days 32    
Moisture  
Dew Point 32 °F    
Average Humidity 95    
Maximum Humidity 100    
Minimum Humidity 87    
Precipitation  
Precipitation 0.09 in - - ()
Sea Level Pressure  
Sea Level Pressure 29.78 in    
Wind  
Wind Speed 11 mph (WSW)    
Max Wind Speed 20 mph    
Max Gust Speed 28 mph    
Visibility 6 miles    
Events Rain , Snow    
Averages and records for this station are not official NWS values.
T = Trace of Precipitation, MM = Missing Value Source: NWS Daily Summary

Daily Weather History Graph

Daily Weather History Graph

Search for Another Location

Airport or City:

Trip Planner

Search our weather history database for the weather conditions in past years. The results will help you decide how hot, cold, wet, or windy it might be!

Date:

Astronomy

Dec. 22, 2013 Rise Set
Actual Time 8:06 AM EST 5:21 PM EST
Civil Twilight 7:35 AM EST 5:52 PM EST
Nautical Twilight 7:01 AM EST 6:27 PM EST
Astronomical Twilight 6:27 AM EST 7:00 PM EST
Moon 10:35 PM EST (12/22) 11:01 AM EST (12/22)
Length of Visible Light 10h 17m
Length of Day
9h 15m
Waning Gibbous, 77% of the Moon is Illuminated
Dec 22
Waning Gibbous
Dec 25
Last Quarter
Jan 1
New
Jan 7
First Quarter
Jan 15
Full

Hourly Weather History & Observations

Time (EST) Temp. Windchill Dew Point Humidity Pressure Visibility Wind Dir Wind Speed Gust Speed Precip Events Conditions
12:15 AM 33.8 °F 24.3 °F 33.8 °F 100% 29.49 in 3.0 mi ENE 13.8 mph 18.4 mph 0.01 in Rain Light Rain
12:35 AM 33.8 °F 22.8 °F 33.8 °F 100% 29.46 in 1.8 mi ENE 18.4 mph 21.9 mph 0.03 in Snow Light Snow
12:55 AM 33.8 °F 24.3 °F 33.8 °F 100% 29.49 in 3.0 mi ENE 13.8 mph 20.7 mph 0.05 in Rain Light Rain
1:15 AM 33.8 °F 25.8 °F 32.0 °F 93% 29.54 in 2.5 mi East 10.4 mph - 0.02 in Rain Light Rain
1:35 AM 33.8 °F 25.3 °F 32.0 °F 93% 29.51 in 3.0 mi ENE 11.5 mph - 0.03 in Rain Light Rain
1:55 AM 33.8 °F 26.4 °F 32.0 °F 93% 29.51 in 5.0 mi ENE 9.2 mph - 0.03 in Rain Rain
2:15 AM 33.8 °F 27.7 °F 33.8 °F 100% 29.52 in 4.0 mi NE 6.9 mph - N/A   Drizzle
2:35 AM 33.8 °F 29.6 °F 33.8 °F 100% 29.51 in 4.0 mi NNE 4.6 mph - 0.01 in   Drizzle
2:55 AM 33.8 °F 29.6 °F 33.8 °F 100% 29.52 in 3.0 mi NNE 4.6 mph - 0.01 in   Drizzle
3:15 AM 33.8 °F 30.8 °F 32.0 °F 93% 29.53 in 2.5 mi NNE 3.5 mph - N/A   Drizzle
3:35 AM 33.8 °F 29.6 °F 32.0 °F 93% 29.52 in 3.0 mi NNE 4.6 mph - N/A   Drizzle
3:55 AM 33.8 °F 30.8 °F 33.8 °F 100% 29.53 in 3.0 mi North 3.5 mph - N/A   Light Drizzle
4:15 AM 33.8 °F - 33.8 °F 100% 29.54 in 2.0 mi Calm Calm - N/A   Drizzle
4:35 AM 33.8 °F 29.6 °F 33.8 °F 100% 29.53 in 2.0 mi NNW 4.6 mph - N/A Rain Light Rain
4:55 AM 33.8 °F - 32.0 °F 93% 29.54 in 2.5 mi Calm Calm - N/A   Light Drizzle
5:15 AM 33.8 °F - 32.0 °F 93% 29.56 in 3.0 mi Calm Calm - N/A   Overcast
5:35 AM 33.8 °F 29.6 °F 33.8 °F 100% 29.57 in 4.0 mi West 4.6 mph - N/A   Overcast
5:55 AM 33.8 °F 27.0 °F 32.0 °F 93% 29.59 in 3.0 mi West 8.1 mph - N/A   Overcast
6:15 AM 33.8 °F 27.7 °F 33.8 °F 100% 29.60 in 1.8 mi WSW 6.9 mph - N/A Rain Light Rain
6:35 AM 33.8 °F 27.0 °F 33.8 °F 100% 29.61 in 1.8 mi West 8.1 mph - N/A Rain Light Rain
6:55 AM 33.8 °F 28.6 °F 32.0 °F 93% 29.62 in 2.5 mi WSW 5.8 mph - N/A   Overcast
7:15 AM 33.8 °F 27.0 °F 32.0 °F 93% 29.63 in 2.5 mi WSW 8.1 mph - N/A   Overcast
7:35 AM 33.8 °F 29.6 °F 32.0 °F 93% 29.64 in 3.0 mi WSW 4.6 mph - N/A   Overcast
7:55 AM 33.8 °F 27.0 °F 32.0 °F 93% 29.66 in 2.5 mi SW 8.1 mph - N/A   Overcast
8:15 AM 33.8 °F 26.4 °F 32.0 °F 93% 29.66 in 4.0 mi SW 9.2 mph - N/A   Overcast
8:35 AM 33.8 °F 26.4 °F 32.0 °F 93% 29.68 in 1.0 mi SW 9.2 mph - N/A   Overcast
8:55 AM 33.8 °F 24.3 °F 33.8 °F 100% 29.70 in 1.2 mi SW 13.8 mph - N/A   Overcast
9:15 AM 33.8 °F 23.5 °F 33.8 °F 100% 29.71 in 2.0 mi SW 16.1 mph - N/A   Overcast
9:35 AM 33.8 °F 24.3 °F 33.8 °F 100% 29.72 in 7.0 mi SW 13.8 mph - N/A   Overcast
9:55 AM 35.6 °F 25.2 °F 33.8 °F 93% 29.73 in 10.0 mi SW 18.4 mph - N/A   Overcast
10:15 AM 35.6 °F 24.8 °F 33.8 °F 93% 29.74 in 10.0 mi SW 19.6 mph 24.2 mph N/A   Overcast
10:35 AM 35.6 °F 25.5 °F 33.8 °F 93% 29.76 in 10.0 mi SW 17.3 mph 21.9 mph N/A   Overcast
10:55 AM 35.6 °F 25.5 °F 33.8 °F 93% 29.77 in 10.0 mi SW 17.3 mph 23.0 mph N/A   Overcast
11:15 AM 35.6 °F 25.9 °F 33.8 °F 93% 29.79 in 10.0 mi SW 16.1 mph 21.9 mph N/A   Overcast
11:35 AM 35.6 °F 25.5 °F 33.8 °F 93% 29.79 in 5.0 mi SW 17.3 mph - N/A   Overcast
11:55 AM 35.6 °F 25.2 °F 33.8 °F 93% 29.80 in 7.0 mi WSW 18.4 mph 25.3 mph N/A   Overcast
12:15 PM 35.6 °F 25.2 °F 33.8 °F 93% 29.81 in 10.0 mi SW 18.4 mph 27.6 mph N/A   Overcast
12:35 PM 33.8 °F 23.2 °F 33.8 °F 100% 29.81 in 10.0 mi SW 17.3 mph - N/A   Overcast
12:55 PM 33.8 °F 24.3 °F 32.0 °F 93% 29.82 in 10.0 mi SW 13.8 mph 19.6 mph N/A   Overcast
1:15 PM 33.8 °F 22.8 °F 32.0 °F 93% 29.83 in 5.0 mi SW 18.4 mph 25.3 mph N/A   Overcast
1:35 PM 33.8 °F 22.5 °F 32.0 °F 93% 29.83 in 10.0 mi SW 19.6 mph 27.6 mph N/A   Overcast
1:55 PM 33.8 °F 23.2 °F 32.0 °F 93% 29.85 in 7.0 mi SW 17.3 mph 24.2 mph N/A   Overcast
2:15 PM 33.8 °F 22.5 °F 32.0 °F 93% 29.85 in 3.0 mi SW 19.6 mph 24.2 mph N/A Rain Light Rain
2:35 PM 33.8 °F 23.2 °F 32.0 °F 93% 29.86 in 3.0 mi SW 17.3 mph 21.9 mph N/A Rain Light Rain
2:55 PM 33.8 °F 23.9 °F 32.0 °F 93% 29.85 in 10.0 mi SW 15.0 mph - N/A   Overcast
3:15 PM 33.8 °F 23.9 °F 32.0 °F 93% 29.86 in 10.0 mi SW 15.0 mph 18.4 mph N/A   Overcast
3:35 PM 33.8 °F 23.5 °F 32.0 °F 93% 29.87 in 10.0 mi WSW 16.1 mph 21.9 mph N/A   Overcast
3:55 PM 33.8 °F 23.9 °F 32.0 °F 93% 29.88 in 7.0 mi SW 15.0 mph - N/A   Overcast
4:15 PM 33.8 °F 23.9 °F 32.0 °F 93% 29.89 in 10.0 mi WSW 15.0 mph - N/A   Overcast
4:35 PM 33.8 °F 25.3 °F 32.0 °F 93% 29.90 in 10.0 mi SW 11.5 mph - N/A   Overcast
4:55 PM 33.8 °F 25.3 °F 32.0 °F 93% 29.91 in 10.0 mi SW 11.5 mph - N/A   Overcast
5:15 PM 33.8 °F 25.8 °F 32.0 °F 93% 29.93 in 10.0 mi SW 10.4 mph - N/A   Overcast
5:35 PM 33.8 °F 23.9 °F 32.0 °F 93% 29.93 in 4.0 mi WSW 15.0 mph - N/A Rain Rain
5:55 PM 32.0 °F 22.1 °F 32.0 °F 100% 29.93 in 4.0 mi WSW 13.8 mph - N/A   Drizzle
6:15 PM 32.0 °F 23.0 °F 32.0 °F 100% 29.94 in 5.0 mi WSW 11.5 mph - N/A   Overcast
6:35 PM 32.0 °F 23.6 °F 32.0 °F 100% 29.95 in 2.5 mi WSW 10.4 mph - N/A Snow Snow
6:55 PM 32.0 °F 23.0 °F 32.0 °F 100% 29.96 in 2.5 mi West 11.5 mph - N/A Rain Rain
7:15 PM 32.0 °F 22.5 °F 32.0 °F 100% 29.97 in 7.0 mi West 12.7 mph 17.3 mph N/A   Overcast
7:35 PM 32.0 °F 23.0 °F 32.0 °F 100% 29.98 in 5.0 mi West 11.5 mph - N/A   Overcast
7:55 PM 32.0 °F 23.0 °F 30.2 °F 93% 29.99 in 3.0 mi West 11.5 mph 17.3 mph N/A   Overcast
8:15 PM 32.0 °F 22.5 °F 30.2 °F 93% 30.01 in 4.0 mi West 12.7 mph - N/A   Overcast
8:35 PM 32.0 °F 22.5 °F 30.2 °F 93% 30.01 in 5.0 mi West 12.7 mph 16.1 mph N/A   Overcast
8:55 PM 32.0 °F 23.0 °F 30.2 °F 93% 30.01 in 7.0 mi West 11.5 mph 16.1 mph N/A   Overcast
9:15 PM 32.0 °F 22.5 °F 30.2 °F 93% 30.02 in 10.0 mi West 12.7 mph 17.3 mph N/A   Overcast
9:35 PM 32.0 °F 23.6 °F 28.4 °F 87% 30.02 in 10.0 mi West 10.4 mph - N/A   Overcast
9:55 PM 30.2 °F 21.9 °F 28.4 °F 93% 30.03 in 10.0 mi West 9.2 mph - N/A   Overcast
10:15 PM 30.2 °F 21.3 °F 28.4 °F 93% 30.04 in 10.0 mi West 10.4 mph - N/A   Overcast
10:35 PM 30.2 °F 19.8 °F 28.4 °F 93% 30.04 in 10.0 mi West 13.8 mph 17.3 mph N/A   Overcast
10:55 PM 30.2 °F 21.3 °F 28.4 °F 93% 30.05 in 10.0 mi West 10.4 mph 16.1 mph N/A   Overcast
11:15 PM 30.2 °F 20.2 °F 28.4 °F 93% 30.06 in 10.0 mi West 12.7 mph 18.4 mph N/A   Overcast
11:35 PM 30.2 °F 20.8 °F 28.4 °F 93% 30.07 in 10.0 mi West 11.5 mph 18.4 mph N/A   Overcast
11:55 PM 30.2 °F 20.8 °F 28.4 °F 93% 30.08 in 10.0 mi West 11.5 mph - N/A   Overcast